Retour au catalogue

QIANFAN-34

ActifCommunicationsPO
NORAD 61567·PAYLOAD·🇨🇳 China

Lancé Oct 15, 2024 depuis Taiyuan Satellite Launch Center

Loading…

Prochains Passages (prochaines 24 heures)

TLE

FraisSource: Space-Track

Époque: Sep 14, 2026, 13:32 UTC

1 61567U 24185R   26257.56422106  .00000433  00000-0  27231-3 0  9991
2 61567  88.9803  47.2577 0006164 160.0829 200.0593 14.02517406108017

Suivez QIANFAN-34 en temps réel avec AllMySat

Download on the App Store